Location: Chemnitz
(49.5500°N, 11.5830°E)
Time: 08:50:09
(UTC+02:00)

ISS - Visible Passes

Search period start: 28 May 2017 00:00
Search period end: 07 June 2017 00:00
Orbit: 402 x 408 km, 51.6° (Epoch: 28 May)

Date Brightness Start Highest point End Pass type
(mag) Time Alt. Az. Time Alt. Az. Time Alt. Az.
28 May -3.2 00:06:42 10° W 00:09:58 57° N 00:13:14 10° E visible
28 May -4.0 01:43:17 10° WNW 01:46:36 82° SSW 01:47:25 48° ESE visible
28 May -3.2 23:14:35 10° W 23:17:51 60° N 23:21:07 10° ENE visible
29 May -3.7 00:51:15 10° WNW 00:54:33 76° NNE 00:56:01 30° E visible
29 May -1.6 02:27:55 10° W 02:28:37 15° W 02:28:37 15° W visible
29 May -3.5 22:22:27 10° W 22:25:45 69° NNW 22:29:02 10° ENE visible
29 May -3.4 23:59:10 10° WNW 00:02:27 63° N 00:05:08 14° E visible
30 May -2.7 01:35:44 10° WNW 01:37:45 31° W 01:37:45 31° W visible
30 May -3.2 23:07:03 10° WNW 23:10:19 57° N 23:13:35 10° E visible
31 May -4.0 00:43:38 10° WNW 00:46:56 72° SSW 00:47:05 70° S visible
31 May -3.2 22:14:54 10° W 22:18:11 58° N 22:21:27 10° ENE visible
31 May -3.8 23:51:32 10° WNW 23:54:51 83° NNE 23:56:30 27° ESE visible
01 Jun -1.6 01:28:17 10° W 01:29:07 15° W 01:29:07 15° W visible
01 Jun -3.5 22:59:26 10° WNW 23:02:44 67° N 23:05:58 10° E visible
02 Jun -3.0 00:36:01 10° WNW 00:38:36 37° WSW 00:38:36 37° WSW visible
02 Jun -3.2 22:07:17 10° WNW 22:10:34 59° N 22:13:50 10° E visible
02 Jun -3.8 23:43:51 10° WNW 23:47:07 63° SSW 23:48:06 39° SE visible
03 Jun -3.9 22:51:43 10° WNW 22:55:02 88° SSW 22:57:39 15° ESE visible
04 Jun -2.0 00:28:34 10° W 00:30:17 20° WSW 00:30:17 20° WSW visible
04 Jun -3.6 21:59:35 10° WNW 22:02:53 72° NNE 22:06:10 10° E visible
04 Jun -3.0 23:36:12 10° W 23:39:15 35° SSW 23:39:51 32° S visible
05 Jun -3.6 22:43:58 10° WNW 22:47:12 54° SSW 22:49:26 18° SE visible
06 Jun -1.2 00:21:51 10° WSW 00:22:05 11° WSW 00:22:05 11° WSW visible
06 Jun -3.8 21:51:47 10° WNW 21:55:06 79° SSW 21:58:23 10° ESE visible
06 Jun -2.1 23:28:47 10° W 23:31:12 19° SW 23:31:42 18° SSW visible
